• Em Portugal
  • Lista de países
  • Para 7 dias
  • Temperatura da água
  • Mapas de satélite
  • Mapa do tempo
  • Widgets de tempo
  • user-avatar
    Iniciar Sessão

    Previsão horária em Ganja

    Hoje, 26 Maio, Sábado

    Tempo Temperatura Precipitação Vento Pressão Humidade
    00:00 +21°C° 0 mm 2 m/s 722 mmHg 53%
    01:00 +21°C° 0 mm 2 m/s 722 mmHg 53%
    02:00 +20°C° 0 mm 2 m/s 722 mmHg 53%
    03:00 +21°C° 0 mm 3 m/s 721 mmHg 51%
    04:00 +21°C° 0 mm 3 m/s 721 mmHg 51%
    05:00 +22°C° 0 mm 3 m/s 722 mmHg 52%
    06:00 +22°C° 0 mm 3 m/s 722 mmHg 53%
    07:00 +25°C° 0 mm 3 m/s 722 mmHg 47%
    08:00 +27°C° 0 mm 3 m/s 722 mmHg 42%
    09:00 +28°C° 0 mm 3 m/s 722 mmHg 37%
    10:00 +29°C° 0,1 mm 3 m/s 722 mmHg 36%
    11:00 +30°C° 0,1 mm 3 m/s 722 mmHg 35%
    12:00 +31°C° 0,1 mm 3 m/s 722 mmHg 34%
    13:00 +31°C° 0 mm 2 m/s 722 mmHg 33%
    14:00 +32°C° 0 mm 2 m/s 722 mmHg 33%
    15:00 +32°C° 0 mm 2 m/s 722 mmHg 32%
    16:00 +31°C° 0,1 mm 2 m/s 722 mmHg 36%
    17:00 +30°C° 0,1 mm 2 m/s 722 mmHg 40%
    18:00 +30°C° 0,1 mm 2 m/s 722 mmHg 44%
    19:00 +28°C° 0,9 mm 2 m/s 723 mmHg 49%
    20:00 +26°C° 0,9 mm 2 m/s 723 mmHg 55%
    21:00 +24°C° 0,9 mm 1 m/s 724 mmHg 60%
    22:00 +23°C° 0,8 mm 1 m/s 724 mmHg 62%
    23:00 +23°C° 0,8 mm 2 m/s 725 mmHg 64%

    Amanhã, 27 Maio, Domingo

    Tempo Temperatura Precipitação Vento Pressão Humidade
    00:00 +23°C° 0,8 mm 2 m/s 725 mmHg 66%
    01:00 +21°C° 0,1 mm 2 m/s 726 mmHg 68%
    02:00 +21°C° 0,1 mm 2 m/s 726 mmHg 70%
    03:00 +20°C° 0,1 mm 2 m/s 726 mmHg 72%
    04:00 +21°C° 0,2 mm 2 m/s 727 mmHg 73%
    05:00 +21°C° 0,2 mm 2 m/s 727 mmHg 75%
    06:00 +21°C° 0,2 mm 3 m/s 727 mmHg 77%
    07:00 +22°C° 0 mm 4 m/s 728 mmHg 72%
    08:00 +23°C° 0 mm 5 m/s 728 mmHg 67%
    09:00 +24°C° 0 mm 6 m/s 729 mmHg 63%
    10:00 +24°C° 0,1 mm 6 m/s 729 mmHg 60%
    11:00 +26°C° 0,1 mm 7 m/s 729 mmHg 57%
    12:00 +26°C° 0,1 mm 8 m/s 729 mmHg 54%
    13:00 +26°C° 0,1 mm 8 m/s 729 mmHg 54%
    14:00 +26°C° 0,1 mm 8 m/s 729 mmHg 54%
    15:00 +26°C° 0,1 mm 8 m/s 729 mmHg 54%
    16:00 +24°C° 0 mm 8 m/s 730 mmHg 56%
    17:00 +23°C° 0 mm 7 m/s 730 mmHg 59%
    18:00 +22°C° 0 mm 7 m/s 730 mmHg 61%
    19:00 +21°C° 0 mm 7 m/s 730 mmHg 64%
    20:00 +19°C° 0 mm 6 m/s 731 mmHg 67%
    21:00 +17°C° 0 mm 6 m/s 731 mmHg 70%
    22:00 +17°C° 0 mm 5 m/s 731 mmHg 70%
    23:00 +17°C° 0 mm 4 m/s 731 mmHg 70%

    Depois de amanhã, 28 Maio, Segunda-feira

    Tempo Temperatura Precipitação Vento Pressão Humidade
    00:00 +17°C° 0 mm 3 m/s 731 mmHg 71%
    01:00 +16°C° 0 mm 2 m/s 731 mmHg 72%
    02:00 +16°C° 0 mm 2 m/s 730 mmHg 74%
    03:00 +16°C° 0 mm 1 m/s 730 mmHg 75%
    04:00 +16°C° 0 mm 1 m/s 730 mmHg 74%
    05:00 +16°C° 0 mm 1 m/s 729 mmHg 73%
    06:00 +18°C° 0 mm 1 m/s 729 mmHg 71%
    07:00 +19°C° 0 mm 1 m/s 729 mmHg 67%
    08:00 +21°C° 0 mm 1 m/s 728 mmHg 63%
    09:00 +21°C° 0 mm 2 m/s 728 mmHg 59%
    10:00 +24°C° 0 mm 2 m/s 727 mmHg 56%
    11:00 +25°C° 0 mm 1 m/s 727 mmHg 53%
    12:00 +26°C° 0 mm 1 m/s 726 mmHg 50%
    13:00 +27°C° 0,2 mm 2 m/s 726 mmHg 49%
    14:00 +28°C° 0,2 mm 2 m/s 725 mmHg 48%
    15:00 +28°C° 0,2 mm 2 m/s 725 mmHg 47%
    16:00 +28°C° 0,2 mm 2 m/s 725 mmHg 49%
    17:00 +27°C° 0,2 mm 2 m/s 725 mmHg 51%
    18:00 +27°C° 0,2 mm 2 m/s 725 mmHg 53%
    19:00 +26°C° 0 mm 2 m/s 725 mmHg 56%
    20:00 +24°C° 0 mm 2 m/s 726 mmHg 58%
    21:00 +23°C° 0 mm 1 m/s 726 mmHg 61%
    22:00 +22°C° 0 mm 1 m/s 726 mmHg 62%
    23:00 +22°C° 0 mm 1 m/s 726 mmHg 63%

    29 Maio, Terça-feira

    Tempo Temperatura Precipitação Vento Pressão Humidade
    00:00 +21°C° 0 mm 1 m/s 726 mmHg 65%
    01:00 +21°C° 0 mm 1 m/s 726 mmHg 67%
    02:00 +20°C° 0 mm 1 m/s 726 mmHg 70%
    03:00 +20°C° 0 mm 1 m/s 726 mmHg 73%
    04:00 +20°C° 0 mm 1 m/s 726 mmHg 72%
    05:00 +21°C° 0 mm 1 m/s 727 mmHg 71%
    06:00 +22°C° 0 mm 1 m/s 727 mmHg 70%
    07:00 +22°C° 0 mm 3 m/s 727 mmHg 66%
    08:00 +23°C° 0 mm 4 m/s 727 mmHg 62%
    09:00 +26°C° 0 mm 5 m/s 727 mmHg 58%
    10:00 +26°C° 0 mm 5 m/s 727 mmHg 55%
    11:00 +27°C° 0 mm 6 m/s 727 mmHg 53%
    12:00 +28°C° 0 mm 7 m/s 727 mmHg 50%
    13:00 +28°C° 0,1 mm 7 m/s 727 mmHg 51%
    14:00 +28°C° 0,1 mm 7 m/s 726 mmHg 51%
    15:00 +27°C° 0,1 mm 7 m/s 726 mmHg 51%
    16:00 +26°C° 0,8 mm 7 m/s 726 mmHg 55%
    17:00 +24°C° 0,8 mm 7 m/s 726 mmHg 58%
    18:00 +23°C° 0,8 mm 6 m/s 727 mmHg 62%
    19:00 +22°C° 0,9 mm 7 m/s 727 mmHg 64%
    20:00 +21°C° 0,9 mm 7 m/s 727 mmHg 67%
    21:00 +20°C° 0,9 mm 7 m/s 728 mmHg 69%
    22:00 +20°C° 0,3 mm 7 m/s 728 mmHg 70%
    23:00 +19°C° 0,3 mm 6 m/s 727 mmHg 70%

    30 Maio, Quarta-feira

    Tempo Temperatura Precipitação Vento Pressão Humidade
    00:00 +19°C° 0,3 mm 6 m/s 727 mmHg 70%
    01:00 +17°C° 0,2 mm 5 m/s 727 mmHg 72%
    02:00 +17°C° 0,2 mm 5 m/s 727 mmHg 74%
    03:00 +17°C° 0,2 mm 4 m/s 727 mmHg 75%
    04:00 +17°C° 0 mm 4 m/s 727 mmHg 75%
    05:00 +17°C° 0 mm 3 m/s 727 mmHg 76%
    06:00 +17°C° 0 mm 3 m/s 727 mmHg 76%
    07:00 +19°C° 0 mm 3 m/s 727 mmHg 71%
    08:00 +20°C° 0 mm 3 m/s 727 mmHg 66%
    09:00 +21°C° 0 mm 4 m/s 727 mmHg 61%
    10:00 +21°C° 0 mm 3 m/s 727 mmHg 59%
    11:00 +22°C° 0 mm 3 m/s 726 mmHg 57%
    12:00 +24°C° 0 mm 3 m/s 726 mmHg 55%
    13:00 +25°C° 0 mm 3 m/s 725 mmHg 53%
    14:00 +25°C° 0 mm 3 m/s 725 mmHg 52%
    15:00 +26°C° 0 mm 3 m/s 724 mmHg 51%
    16:00 +26°C° 0 mm 2 m/s 724 mmHg 52%
    17:00 +26°C° 0 mm 2 m/s 724 mmHg 53%
    18:00 +25°C° 0 mm 2 m/s 724 mmHg 55%
    19:00 +24°C° 0 mm 2 m/s 724 mmHg 57%
    20:00 +23°C° 0 mm 2 m/s 724 mmHg 60%
    21:00 +21°C° 0 mm 2 m/s 725 mmHg 62%
    22:00 +21°C° 0,1 mm 2 m/s 725 mmHg 62%
    23:00 +21°C° 0,1 mm 2 m/s 725 mmHg 62%

    31 Maio, Quinta-feira

    Tempo Temperatura Precipitação Vento Pressão Humidade
    00:00 +20°C° 0,1 mm 2 m/s 725 mmHg 62%
    01:00 +20°C° 0 mm 2 m/s 724 mmHg 63%
    02:00 +20°C° 0 mm 1 m/s 723 mmHg 63%
    03:00 +20°C° 0 mm 1 m/s 723 mmHg 64%
    04:00 +20°C° 0 mm 1 m/s 723 mmHg 63%
    05:00 +21°C° 0 mm 1 m/s 723 mmHg 62%
    06:00 +21°C° 0 mm 1 m/s 723 mmHg 61%
    07:00 +23°C° 0 mm 1 m/s 722 mmHg 58%
    08:00 +24°C° 0 mm 1 m/s 722 mmHg 54%
    09:00 +25°C° 0 mm 2 m/s 722 mmHg 50%
    10:00 +26°C° 0,1 mm 2 m/s 721 mmHg 48%
    11:00 +27°C° 0,1 mm 2 m/s 721 mmHg 46%
    12:00 +29°C° 0,1 mm 2 m/s 720 mmHg 44%
    13:00 +29°C° 0,2 mm 2 m/s 720 mmHg 44%
    14:00 +29°C° 0,2 mm 2 m/s 720 mmHg 44%
    15:00 +30°C° 0,2 mm 2 m/s 719 mmHg 44%
    16:00 +29°C° 0,2 mm 2 m/s 719 mmHg 46%
    17:00 +29°C° 0,2 mm 1 m/s 719 mmHg 49%
    18:00 +28°C° 0,2 mm 1 m/s 719 mmHg 51%
    19:00 +27°C° 1 mm 1 m/s 720 mmHg 59%
    20:00 +25°C° 1 mm 1 m/s 720 mmHg 67%
    21:00 +23°C° 1 mm 2 m/s 721 mmHg 74%
    22:00 +23°C° 0,6 mm 2 m/s 721 mmHg 74%
    23:00 +21°C° 0,6 mm 2 m/s 721 mmHg 74%
    Mostrar mais